SPACEBEE-7 (43816 NORAD) Tracking and Keplerian Element Data

This shows tracking and keplerian element data for the satellite.

Feedback or suggestion? Click here.




ElementValue
Catalog43816
NameSPACEBEE-7
Epoch Orbit33754
Epoch Day34.76133947
Epoch Year2025
RAAN103.4491
Inclination97.5148
Eccentricity0.0007136
Argument of Perigee196.6792
Mean Anonmoly163.4212
Mean Motion15.26220884
Decay Rate0.00031274
L11 43816U 18099BL 25034.76133947 .00031274 00000+0 12064-2 0 9994
L22 43816 97.5148 103.4491 0007136 196.6792 163.4212 15.26220884337546



Live tracking and technical data element details for SPACEBEE-7 (NORAD 43816). SPACEBEE-7 can be tracked NOW for your location showing map with azimuth and elevation plus other details from your city location.







IsCatalogInMostPopularTable: catalog: 43816, numindb: 400
Update: records affected: 1



GetName: 43816 SPACEBEE-7

Hit Count: updated at: Sat, 24 May 2025 17:09:11 GMT